Location: Newark
(45.2500°N, 7.5833°E)
Time: 10:30:27
(UTC+00:00)

Vanguard 3 - Pass Details

Date: 04 February 2020
Orbit: 508 x 3263 km, 33.3° (Epoch: 19 February)

Event Time Altitude Azimuth Distance (km) Brightness Sun altitude
Rises 18:51:47 0° 275° (W) 6,961 13.4 -23.4°
Reaches altitude 10° 18:56:37 10° 269° (W) 6,102 12.7 -24.2°
Maximum altitude 19:14:18 43° 208° (SSW) 3,961 10.7 -27.3°
Enters shadow 19:27:21 15° 148° (SSE) 4,869 10.7 -29.6°
Drops below altitude 10° 19:29:12 10° 144° (SE) 5,171 - -29.9°
Sets 19:32:55 0° 137° (SE) 5,855 - -30.6°
